Regional Weather Roundup
Issued by NWS State College, PA

Home | Current Version | Previous Version | Graphics & Text | Print | Product List | Glossary Off
Versions: 1 2 3 4 5 6 7 8 9 10 11 12 13 14 15 16 17 18 19 20 21 22 23 24 25 26 27 28 29 30 31 32 33 34 35 36 37 38 39 40 41 42 43 44 45 46 47 48 49 50

000
ASUS41 KCTP 201003
RWRCTP

REGIONAL WEATHER ROUNDUP
NATIONAL WEATHER SERVICE STATE COLLEGE PA
500 AM EST MON FEB 20 2017

Note: "fair" indicates few or no clouds below 12,000 feet with no
significant weather and/or obstructions to visibility.

* = STATION THAT DOES NOT REPORT PRECIPITATION /E.G. RAIN...SNOW...ETC/
    THUNDER OR FOG.

PAZ002>004-007>009-013>016-020>023-029>032-201100-
WESTERN PENNSYLVANIA

CITY           SKY/WX    TMP DP  RH WIND       PRES   REMARKS
ERIE           CLEAR     30  27  88 CALM      30.23R
MEADVILLE      CLEAR     37  30  75 W3        30.19R
FRANKLIN*      CLEAR     32  27  80 W5        30.20R
NEW CASTLE     FAIR      29  26  89 CALM      30.21R
BEAVER COUNTY  NOT AVBL
BUTLER*        CLEAR     34  27  75 NE3       30.19R
PITTSBURGH INT MOCLDY    39  38  96 CALM      30.18R FOG
PITTSBURGH     CLEAR     43  40  89 CALM      30.18R FOG
INDIANA*       FOG       36  36 100 CALM      30.21R VSB 0
LATROBE        MOCLDY    41  41 100 SW6       30.20R FOG
WASHINGTON CO* CLOUDY    36  34  93 CALM      30.21R VSB 1/4
$$

PAZ004>006-010>012-017>019-024>028-033>037-041-042-045-046-049>053-201100-
CENTRAL PENNSYLVANIA

CITY           SKY/WX    TMP DP  RH WIND       PRES   REMARKS
BRADFORD       CLEAR     28  27  96 NW3       30.15R
DUBOIS         CLEAR     36  28  73 W5        30.15R
CLEARFIELD       N/A    N/A N/A N/A MISG      30.15R
JOHNSTOWN      CLEAR     40  38  93 W10       30.14R
ALTOONA        CLEAR     44  32  62 NW7       30.15R
STATE COLLEGE  CLEAR     41  30  65 CALM      30.15R
WILLIAMSPORT   CLEAR     39  31  72 W7        30.15R
SELINSGROVE    CLEAR     34  31  88 N6        30.15R
FT INDIANTOWN  CLEAR     47  32  55 CALM      30.12R
CAPITAL CITY   CLEAR     51  29  42 NW8       30.12R
HARRISBURG     CLEAR     46  31  55 N7        30.12R
YORK           CLEAR     32  28  85 CALM      30.12R
$$

PAZ038>040-043-044-047-048-054-055-060>062-067>071-201100-
EASTERN PENNSYLVANIA

CITY           SKY/WX    TMP DP  RH WIND       PRES   REMARKS
SCRANTON       CLEAR     39  30  70 W6        30.12R
MOUNT POCONO   CLEAR     34  29  82 NW10      30.05R
ALLENTOWN      CLEAR     38  30  73 N6        30.11R
QUAKERTOWN*    SUNNY     39  32  75 CALM      30.11R
READING        CLEAR     43  34  70 NW9       30.11R
LANCASTER      CLEAR     45  32  60 N5        30.11R
COATESVILLE    SUNNY     46  32  57 N6        30.12R
POTTSTOWN      CLEAR     45  32  60 N3        30.13R
BLUE BELL      CLEAR     37  32  81 CALM      30.10R
DOYLESTOWN     CLEAR     46  32  58 N8        30.10R
WILLOW GROVE   NOT AVBL
NORTH PHILA    CLEAR     47  34  60 N9        30.12R
PHILADELPHIA   CLEAR     47  32  56 N9        30.11R
$$




USA.gov is the U.S. government's official web portal to all federal, state and local government web resources and services.